Temp
-10 -10 -10 -11 -11 -11 -11 -11 -11 -11 -11 -11 -11 -12 -12 -11 -11 -12 -12 -12 -12 -13 -13 -13 -13 -13 -13 -13 -13 -13 -13 -13 -13 -13 -13 -13 -13 -13 -13 -13 -13 -13 -13 -13 -13 -13 -13 -13 -14 -14 -14 -14 -14 -14 -14 -14 -14 -14 -14 -15 -15 -14
-11 -11 -11 -11 -11 -11 -11 -11 -11 -11 -11 -11 -12 -12 -11 -11 -11 -12 -12 -12 -13 -13 -13 -13 -13 -14 -13 -13 -13 -13 -13 -13 -13 -13 -13 -13 -13 -13 -13 -13 -13 -13 -13 -13 -13 -13 -13 -13 -14 -14 -14 -14 -14 -14 -14 -14 -14 -14 -14 -15 -15 -15
-11 -11 -11 -11 -11 -11 -11 -11 -11 -11 -11 -12 -12 -12 -11 -11 -12 -12 -13 -13 -13 -13 -13 -13 -13 -13 -13 -13 -13 -13 -13 -13 -13 -13 -13 -13 -13 -13 -13 -13 -13 -13 -13 -13 -13 -13 -13 -13 -14 -14 -14 -14 -14 -14 -14 -14 -14 -14 -14 -15 -15 -15
-11 -11 -11 -11 -11 -11 -11 -11 -11 -11 -12 -12 -12 -12 -11 -11 -12 -13 -13 -13 -13 -13 -13 -13 -13 -13 -13 -13 -13 -13 -13 -13 -13 -13 -13 -13 -13 -13 -13 -13 -13 -13 -13 -13 -13 -13 -13 -13 -14 -14 -14 -14 -14 -14 -14 -14 -14 -14 -14 -15 -15 -14
-11 -11 -11 -11 -12 -12 -11 -11 -12 -12 -12 -12 -12 -12 -11 -12 -13 -13 -13 -13 -13 -13 -13 -13 -13 -13 -13 -13 -13 -13 -13 -13 -13 -13 -13 -13 -13 -13 -13 -13 -13 -13 -13 -13 -13 -13 -13 -13 -14 -14 -14 -14 -14 -14 -14 -14 -14 -14 -15 -15 -15 -15
-11 -11 -11 -12 -12 -12 -12 -12 -12 -12 -12 -12 -12 -12 -12 -12 -13 -13 -13 -13 -13 -13 -13 -13 -13 -13 -13 -13 -13 -13 -13 -13 -13 -13 -13 -13 -13 -13 -13 -13 -13 -13 -13 -13 -13 -13 -13 -13 -13 -14 -14 -13 -13 -13 -14 -14 -14 -14 -15 -15 -15 -15
-11 -11 -11 -12 -12 -12 -12 -12 -12 -13 -13 -13 -12 -12 -13 -13 -13 -13 -13 -13 -13 -13 -13 -13 -13 -13 -13 -13 -13 -13 -13 -13 -13 -13 -13 -13 -13 -13 -13 -13 -13 -13 -13 -13 -13 -13 -13 -13 -13 -13 -13 -13 -13 -14 -14 -14 -14 -15 -15 -15 -15 -15
-11 -12 -11 -12 -12 -12 -12 -12 -12 -13 -13 -13 -12 -13 -13 -13 -13 -14 -14 -13 -13 -13 -13 -13 -13 -13 -13 -13 -13 -13 -13 -13 -13 -13 -13 -13 -13 -13 -13 -13 -13 -13 -13 -13 -14 -13 -13 -13 -13 -13 -13 -14 -14 -14 -14 -14 -14 -15 -15 -15 -15 -15
-11 -11 -11 -12 -12 -12 -12 -12 -13 -13 -13 -12 -12 -13 -13 -13 -13 -13 -13 -13 -13 -13 -13 -13 -13 -13 -13 -13 -13 -13 -13 -13 -13 -13 -13 -13 -13 -13 -13 -13 -13 -13 -13 -13 -14 -14 -13 -13 -13 -13 -14 -14 -14 -14 -14 -14 -15 -15 -15 -15 -15 -15
-11 -11 -11 -12 -12 -12 -12 -13 -13 -13 -13 -13 -13 -13 -13 -13 -13 -13 -13 -13 -13 -13 -13 -13 -13 -13 -13 -13 -13 -13 -13 -13 -13 -13 -13 -13 -13 -13 -13 -13 -13 -14 -13 -13 -14 -14 -13 -13 -13 -13 -14 -14 -14 -14 -14 -14 -14 -15 -15 -15 -15 -15
-11 -11 -12 -12 -13 -12 -13 -13 -13 -13 -13 -13 -13 -13 -13 -13 -13 -13 -13 -14 -13 -13 -13 -13 -13 -13 -13 -13 -13 -13 -14 -13 -13 -13 -13 -13 -13 -13 -13 -13 -13 -14 -14 -14 -14 -14 -13 -13 -13 -13 -14 -14 -14 -14 -14 -14 -14 -14 -15 -15 -15 -15
-12 -12 -12 -13 -13 -13 -13 -13 -13 -14 -14 -13 -13 -13 -14 -14 -13 -14 -14 -14 -13 -13 -13 -13 -13 -13 -13 -13 -13 -13 -13 -14 -13 -13 -13 -13 -13 -13 -13 -13 -13 -14 -14 -13 -14 -14 -13 -13 -13 -13 -14 -14 -14 -14 -14 -14 -14 -14 -15 -15 -15 -15
-12 -12 -12 -13 -13 -13 -13 -13 -14 -14 -14 -13 -13 -14 -14 -14 -14 -14 -14 -13 -13 -13 -13 -13 -13 -13 -13 -13 -13 -13 -13 -13 -13 -13 -13 -13 -13 -13 -13 -13 -13 -14 -14 -13 -13 -14 -14 -14 -14 -14 -14 -14 -14 -14 -14 -14 -14 -14 -15 -15 -15 -15
-11 -11 -12 -13 -14 -14 -14 -14 -14 -14 -14 -14 -14 -14 -14 -14 -14 -13 -13 -13 -13 -13 -13 -13 -13 -13 -13 -13 -13 -13 -13 -13 -13 -13 -13 -13 -13 -13 -13 -13 -13 -14 -14 -13 -13 -14 -14 -14 -14 -14 -14 -14 -14 -14 -14 -14 -14 -15 -15 -15 -14 -14
-11 -11 -11 -12 -13 -14 -14 -14 -14 -14 -14 -14 -14 -14 -14 -14 -13 -13 -13 -13 -13 -14 -14 -13 -13 -13 -13 -13 -13 -13 -13 -13 -13 -13 -13 -13 -13 -13 -13 -13 -13 -14 -14 -13 -14 -14 -14 -14 -14 -14 -14 -14 -14 -14 -14 -14 -14 -15 -15 -14 -14 -14
-12 -12 -12 -12 -13 -14 -14 -14 -14 -14 -14 -14 -14 -14 -13 -14 -13 -14 -14 -14 -14 -14 -13 -13 -13 -13 -13 -13 -13 -13 -13 -13 -14 -13 -13 -14 -13 -13 -13 -13 -14 -14 -14 -13 -14 -14 -14 -14 -15 -14 -14 -14 -14 -14 -14 -14 -14 -15 -15 -15 -14 -14
-12 -12 -13 -13 -14 -14 -14 -14 -14 -14 -14 -14 -13 -13 -13 -14 -14 -14 -14 -14 -14 -13 -13 -13 -13 -13 -13 -13 -13 -13 -13 -13 -14 -14 -14 -14 -13 -13 -13 -13 -14 -14 -14 -14 -14 -14 -14 -14 -15 -15 -15 -15 -14 -14 -14 -14 -14 -14 -15 -14 -14 -14
-12 -13 -13 -13 -14 -14 -14 -14 -14 -14 -13 -13 -13 -13 -14 -14 -14 -14 -13 -13 -13 -13 -13 -13 -13 -13 -13 -13 -13 -13 -13 -13 -14 -14 -14 -14 -14 -13 -13 -13 -14 -14 -14 -14 -14 -14 -14 -15 -15 -15 -15 -15 -14 -14 -14 -14 -14 -14 -14 -14 -14 -14
-13 -13 -13 -13 -14 -14 -14 -14 -13 -13 -13 -13 -14 -14 -14 -14 -13 -13 -13 -13 -13 -13 -13 -13 -13 -13 -13 -13 -13 -13 -13 -13 -14 -14 -14 -14 -14 -13 -13 -13 -14 -14 -14 -14 -14 -14 -14 -14 -15 -15 -15 -14 -14 -14 -14 -14 -14 -14 -14 -14 -14 -14
-13 -14 -14 -14 -14 -14 -14 -13 -13 -13 -13 -14 -14 -14 -13 -13 -13 -13 -13 -13 -13 -13 -13 -13 -13 -13 -13 -13 -13 -13 -13 -13 -14 -14 -14 -14 -14 -14 -14 -14 -14 -14 -14 -14 -14 -14 -14 -14 -14 -15 -15 -14 -14 -14 -14 -14 -14 -14 -14 -14 -14 -14
-13 -14 -14 -14 -14 -14 -14 -14 -13 -13 -13 -13 -13 -13 -13 -13 -13 -13 -13 -13 -13 -13 -13 -13 -13 -13 -13 -13 -13 -13 -13 -13 -13 -14 -14 -14 -14 -14 -14 -14 -14 -14 -14 -14 -14 -14 -14 -14 -14 -15 -15 -15 -15 -14 -14 -14 -14 -14 -14 -14 -14 -14
-13 -14 -14 -14 -14 -14 -14 -14 -14 -14 -13 -13 -13 -13 -13 -13 -13 -13 -13 -13 -13 -13 -13 -13 -13 -13 -13 -13 -14 -14 -13 -13 -13 -14 -14 -14 -14 -14 -14 -14 -14 -14 -14 -14 -14 -14 -14 -14 -14 -15 -15 -15 -15 -15 -14 -14 -14 -14 -14 -14 -14 -14
-13 -14 -14 -14 -14 -14 -14 -14 -14 -14 -13 -13 -13 -14 -14 -14 -13 -13 -13 -13 -13 -13 -13 -13 -13 -13 -13 -14 -14 -14 -14 -13 -13 -13 -14 -14 -14 -14 -14 -14 -14 -14 -14 -14 -14 -14 -14 -14 -14 -14 -14 -15 -15 -14 -14 -14 -14 -14 -14 -14 -14 -14
-14 -13 -14 -13 -13 -13 -13 -13 -14 -14 -14 -13 -13 -14 -14 -14 -14 -13 -13 -14 -13 -13 -14 -14 -14 -14 -14 -14 -14 -14 -14 -14 -13 -13 -13 -14 -14 -14 -14 -14 -14 -14 -14 -14 -14 -14 -15 -15 -15 -14 -14 -14 -14 -14 -14 -14 -14 -14 -14 -14 -14 -14
-13 -13 -13 -13 -13 -14 -13 -13 -14 -14 -14 -14 -14 -14 -14 -14 -14 -14 -14 -14 -14 -14 -14 -14 -14 -14 -14 -14 -14 -14 -14 -14 -13 -13 -13 -13 -13 -13 -14 -14 -14 -14 -14 -14 -14 -15 -15 -15 -15 -14 -14 -14 -14 -14 -14 -14 -14 -14 -14 -14 -14 -14
-13 -13 -13 -13 -14 -14 -13 -13 -14 -14 -14 -14 -14 -14 -14 -14 -14 -14 -14 -14 -14 -14 -14 -14 -14 -14 -14 -14 -14 -14 -14 -14 -14 -13 -13 -13 -13 -13 -13 -14 -14 -14 -14 -14 -15 -15 -15 -15 -14 -14 -14 -14 -14 -14 -14 -14 -14 -14 -14 -14 -14 -14
-13 -13 -13 -13 -13 -13 -13 -13 -13 -14 -14 -14 -14 -14 -14 -14 -14 -14 -14 -14 -14 -14 -14 -14 -14 -14 -14 -14 -14 -14 -14 -14 -14 -13 -13 -13 -13 -14 -13 -14 -14 -14 -14 -14 -14 -14 -15 -14 -15 -14 -14 -14 -14 -14 -14 -14 -14 -14 -14 -14 -14 -14
-14 -14 -14 -14 -14 -14 -14 -14 -14 -14 -14 -14 -14 -14 -14 -14 -14 -14 -14 -14 -14 -14 -14 -14 -14 -14 -14 -14 -14 -14 -14 -14 -14 -14 -14 -14 -14 -14 -14 -14 -14 -14 -14 -14 -14 -14 -14 -14 -15 -15 -15 -15 -14 -14 -14 -15 -15 -14 -14 -14 -14 -14
-14 -14 -14 -14 -14 -14 -14 -14 -14 -14 -14 -14 -14 -14 -15 -14 -14 -14 -14 -14 -14 -14 -14 -14 -14 -14 -14 -14 -14 -14 -14 -14 -14 -14 -14 -14 -14 -14 -14 -14 -14 -14 -14 -14 -14 -14 -14 -15 -15 -15 -15 -15 -15 -15 -15 -15 -15 -15 -15 -15 -15 -15
-14 -14 -14 -14 -15 -15 -14 -14 -14 -14 -14 -14 -14 -15 -15 -14 -14 -14 -14 -14 -14 -14 -14 -14 -14 -14 -14 -14 -14 -14 -14 -14 -14 -14 -14 -14 -14 -14 -14 -14 -14 -14 -14 -14 -14 -14 -14 -15 -15 -15 -15 -15 -15 -15 -15 -15 -15 -15 -15 -15 -15 -15
-14 -14 -14 -14 -15 -14 -14 -14 -14 -14 -15 -15 -15 -15 -14 -14 -14 -14 -14 -14 -14 -14 -14 -15 -15 -14 -14 -14 -14 -14 -14 -14 -14 -14 -14 -14 -14 -14 -14 -14 -14 -14 -14 -14 -15 -15 -15 -15 -15 -15 -15 -15 -15 -15 -15 -15 -15 -15 -15 -15 -15 -15
-15 -14 -14 -14 -15 -14 -14 -14 -14 -15 -15 -15 -15 -15 -14 -14 -14 -14 -14 -14 -14 -14 -14 -14 -14 -14 -14 -14 -14 -14 -14 -14 -14 -14 -14 -14 -14 -14 -14 -14 -14 -14 -15 -15 -15 -15 -15 -15 -15 -15 -15 -15 -15 -15 -15 -15 -15 -15 -15 -15 -15 -15
-15 -15 -14 -15 -15 -15 -15 -15 -15 -15 -15 -15 -15 -15 -14 -14 -14 -14 -14 -14 -14 -14 -14 -14 -14 -14 -14 -14 -14 -14 -14 -14 -14 -14 -14 -14 -14 -14 -14 -14 -14 -15 -15 -15 -15 -15 -15 -15 -15 -15 -15 -15 -15 -15 -15 -15 -15 -15 -15 -15 -15 -15
-15 -15 -15 -15 -15 -15 -15 -14 -15 -15 -15 -15 -15 -14 -14 -14 -14 -14 -14 -14 -14 -14 -14 -14 -14 -14 -14 -14 -14 -14 -14 -14 -14 -14 -14 -14 -14 -14 -14 -14 -14 -15 -15 -15 -15 -15 -15 -15 -15 -15 -15 -15 -15 -15 -15 -15 -15 -15 -15 -15 -15 -15
-15 -15 -15 -15 -15 -15 -15 -14 -14 -15 -15 -15 -14 -15 -15 -14 -14 -14 -14 -14 -14 -14 -14 -14 -14 -14 -14 -14 -14 -14 -14 -14 -14 -14 -14 -14 -14 -14 -14 -14 -14 -15 -15 -15 -15 -15 -15 -15 -15 -15 -15 -15 -15 -15 -15 -15 -15 -15 -15 -15 -15 -15
-15 -15 -15 -15 -15 -15 -15 -15 -14 -15 -15 -14 -14 -15 -15 -15 -15 -15 -15 -14 -14 -14 -14 -14 -14 -14 -14 -14 -14 -14 -14 -14 -14 -14 -14 -14 -14 -14 -14 -14 -14 -15 -15 -15 -15 -15 -15 -15 -15 -15 -15 -15 -15 -15 -15 -16 -16 -16 -16 -16 -16 -15
-15 -15 -15 -15 -15 -15 -15 -15 -15 -15 -15 -15 -15 -15 -15 -14 -15 -15 -14 -14 -14 -14 -14 -14 -14 -14 -14 -14 -14 -14 -14 -14 -14 -14 -14 -15 -15 -14 -14 -15 -15 -15 -15 -15 -15 -15 -15 -15 -15 -15 -15 -15 -15 -16 -16 -16 -16 -16 -16 -16 -16 -16
Height
5809 5810 5811 5812 5812 5813 5813 5813 5813 5812 5811 5810 5810 5810 5809 5808 5808 5808 5809 5809 5810 5811 5812 5812 5813 5813 5813 5814 5815 5815 5814 5813 5813 5813 5814 5814 5814 5814 5814 5814 5814 5814 5814 5814 5815 5816 5817 5818 5818 5818 5818 5818 5817 5817 5819 5820 5822 5825 5827 5827 5827 5828
5806 5808 5809 5810 5810 5810 5810 5811 5810 5810 5809 5808 5808 5808 5807 5806 5805 5807 5808 5809 5809 5810 5809 5810 5810 5811 5812 5813 5813 5812 5811 5811 5810 5811 5812 5812 5812 5812 5812 5812 5812 5812 5812 5813 5813 5814 5815 5815 5816 5816 5817 5816 5816 5816 5817 5819 5820 5823 5826 5825 5825 5827
5805 5806 5807 5808 5808 5808 5808 5808 5808 5807 5807 5807 5806 5806 5806 5804 5804 5807 5808 5808 5808 5808 5807 5808 5809 5810 5811 5811 5811 5811 5810 5809 5809 5809 5809 5809 5810 5810 5810 5810 5810 5810 5810 5811 5811 5812 5812 5813 5814 5814 5814 5814 5814 5814 5815 5817 5818 5823 5825 5823 5824 5825
5804 5804 5805 5806 5806 5806 5807 5806 5806 5806 5806 5805 5805 5804 5804 5804 5804 5806 5807 5807 5807 5806 5806 5807 5808 5809 5809 5809 5809 5809 5809 5808 5809 5808 5807 5807 5807 5808 5808 5808 5807 5807 5807 5808 5809 5809 5810 5811 5811 5812 5812 5812 5813 5812 5813 5815 5818 5823 5824 5821 5822 5824
5802 5802 5803 5803 5804 5804 5804 5804 5804 5804 5804 5804 5803 5802 5803 5804 5804 5805 5805 5806 5805 5804 5806 5807 5807 5807 5807 5807 5807 5807 5807 5807 5807 5807 5806 5805 5805 5806 5806 5806 5805 5805 5806 5806 5807 5808 5808 5809 5809 5810 5810 5810 5810 5810 5811 5813 5817 5822 5821 5820 5822 5823
5800 5800 5800 5801 5801 5801 5802 5802 5803 5802 5802 5802 5801 5802 5802 5803 5802 5802 5803 5806 5805 5804 5805 5805 5805 5806 5805 5805 5805 5805 5805 5806 5805 5805 5804 5803 5803 5804 5804 5804 5804 5804 5804 5805 5806 5806 5807 5807 5807 5808 5807 5808 5807 5807 5810 5813 5816 5819 5819 5820 5821 5821
5798 5798 5798 5798 5798 5799 5800 5801 5801 5801 5801 5800 5800 5801 5801 5801 5801 5801 5802 5804 5804 5804 5803 5803 5804 5804 5803 5803 5803 5803 5803 5804 5803 5803 5802 5801 5802 5803 5803 5803 5802 5802 5802 5803 5805 5805 5805 5805 5805 5806 5806 5807 5808 5809 5811 5812 5814 5816 5817 5818 5819 5820
5796 5796 5796 5796 5796 5798 5799 5799 5799 5799 5799 5799 5800 5800 5800 5800 5801 5800 5800 5802 5802 5802 5802 5802 5802 5802 5801 5800 5801 5801 5801 5801 5801 5801 5800 5800 5801 5801 5801 5800 5801 5800 5800 5801 5803 5804 5804 5804 5804 5804 5805 5807 5808 5808 5809 5810 5812 5813 5814 5815 5817 5818
5794 5794 5795 5795 5796 5797 5798 5798 5797 5797 5797 5798 5799 5800 5800 5800 5800 5799 5799 5799 5799 5800 5801 5801 5800 5800 5799 5799 5799 5799 5799 5800 5799 5799 5799 5799 5800 5799 5799 5799 5799 5800 5800 5800 5802 5803 5802 5803 5803 5803 5805 5806 5806 5806 5807 5808 5810 5811 5813 5814 5815 5816
5793 5792 5794 5794 5795 5796 5795 5795 5795 5795 5796 5798 5799 5799 5799 5798 5798 5797 5796 5796 5797 5799 5799 5799 5798 5798 5797 5797 5798 5798 5798 5799 5798 5797 5797 5797 5798 5798 5798 5798 5798 5799 5800 5800 5800 5801 5801 5801 5802 5802 5803 5803 5804 5804 5805 5807 5809 5809 5811 5812 5813 5813
5791 5791 5793 5792 5793 5794 5793 5793 5794 5794 5796 5798 5798 5798 5797 5796 5796 5796 5796 5796 5797 5798 5798 5797 5797 5797 5796 5795 5796 5796 5797 5798 5797 5796 5796 5796 5796 5796 5797 5797 5798 5799 5800 5799 5799 5800 5800 5799 5800 5801 5801 5801 5802 5803 5803 5805 5806 5807 5808 5810 5811 5811
5788 5788 5789 5789 5789 5791 5792 5792 5793 5794 5795 5796 5797 5797 5796 5795 5795 5796 5796 5797 5798 5798 5796 5796 5796 5796 5795 5794 5794 5795 5795 5796 5796 5795 5795 5795 5795 5796 5797 5797 5798 5799 5800 5799 5798 5799 5799 5798 5798 5800 5800 5800 5802 5802 5802 5803 5804 5805 5806 5807 5808 5809
5785 5785 5785 5784 5785 5788 5790 5792 5792 5793 5794 5794 5795 5795 5794 5794 5795 5797 5797 5797 5797 5796 5795 5794 5795 5795 5794 5794 5794 5794 5794 5795 5795 5795 5795 5795 5795 5796 5796 5797 5798 5799 5800 5799 5798 5798 5798 5797 5797 5798 5798 5800 5801 5801 5801 5802 5802 5802 5803 5804 5805 5806
5785 5786 5785 5781 5782 5786 5788 5790 5790 5790 5792 5792 5793 5794 5794 5795 5796 5796 5797 5797 5796 5795 5794 5794 5795 5795 5794 5794 5795 5795 5794 5794 5794 5794 5794 5794 5795 5796 5796 5797 5798 5799 5800 5799 5797 5797 5797 5796 5796 5798 5797 5799 5800 5800 5800 5800 5800 5800 5802 5803 5803 5803
5783 5786 5786 5783 5782 5784 5786 5788 5788 5789 5790 5791 5793 5794 5794 5796 5796 5795 5795 5795 5795 5794 5794 5794 5794 5793 5793 5793 5794 5794 5793 5794 5794 5794 5793 5794 5794 5795 5796 5796 5797 5798 5799 5798 5797 5797 5796 5795 5796 5798 5798 5798 5799 5799 5799 5799 5799 5799 5801 5802 5801 5801
5782 5783 5783 5783 5783 5783 5784 5786 5788 5789 5790 5792 5794 5795 5795 5795 5795 5794 5793 5793 5793 5794 5794 5794 5794 5792 5792 5792 5793 5793 5793 5794 5794 5794 5793 5793 5793 5794 5795 5796 5796 5797 5797 5798 5797 5796 5795 5794 5795 5798 5798 5798 5798 5799 5799 5798 5798 5798 5800 5801 5801 5800
5782 5782 5781 5782 5783 5782 5784 5786 5788 5789 5790 5792 5793 5794 5794 5794 5794 5794 5793 5793 5793 5793 5793 5793 5793 5792 5791 5792 5793 5793 5793 5793 5793 5792 5793 5792 5793 5793 5794 5795 5795 5796 5797 5798 5797 5796 5795 5794 5795 5797 5798 5798 5798 5798 5799 5798 5798 5798 5799 5800 5800 5800
5781 5780 5779 5781 5782 5782 5783 5786 5787 5788 5789 5790 5790 5790 5791 5792 5794 5794 5793 5793 5792 5792 5791 5791 5791 5791 5791 5792 5793 5793 5792 5791 5791 5791 5792 5792 5792 5792 5793 5794 5795 5795 5797 5797 5797 5795 5795 5795 5796 5796 5797 5799 5798 5799 5799 5799 5798 5798 5799 5799 5799 5800
5779 5778 5777 5778 5781 5781 5782 5784 5784 5784 5785 5786 5788 5789 5791 5792 5792 5791 5790 5790 5789 5789 5789 5789 5790 5791 5791 5792 5792 5792 5792 5791 5790 5790 5792 5792 5792 5792 5792 5794 5795 5795 5796 5797 5796 5795 5795 5795 5796 5797 5798 5799 5799 5799 5799 5799 5799 5798 5798 5798 5798 5798
5776 5775 5774 5776 5779 5779 5780 5782 5782 5782 5783 5785 5788 5789 5790 5789 5788 5787 5787 5787 5787 5788 5788 5788 5789 5790 5791 5791 5792 5792 5792 5790 5789 5790 5791 5791 5791 5792 5792 5793 5794 5795 5795 5795 5795 5794 5795 5795 5796 5798 5798 5798 5798 5798 5798 5798 5798 5797 5798 5798 5797 5797
5774 5774 5773 5774 5776 5777 5778 5780 5782 5784 5785 5786 5788 5788 5788 5787 5786 5786 5785 5786 5787 5788 5788 5787 5787 5789 5790 5791 5791 5791 5790 5789 5788 5789 5790 5790 5790 5791 5792 5793 5793 5794 5794 5794 5794 5794 5795 5796 5796 5797 5798 5798 5798 5797 5798 5798 5797 5797 5797 5797 5796 5796
5775 5775 5773 5773 5774 5774 5776 5779 5780 5783 5784 5785 5786 5786 5786 5786 5786 5786 5786 5786 5787 5787 5787 5787 5787 5788 5788 5789 5790 5790 5789 5788 5788 5789 5790 5789 5789 5790 5791 5792 5792 5792 5792 5793 5794 5794 5795 5795 5795 5795 5796 5797 5797 5797 5797 5797 5797 5797 5797 5796 5795 5795
5778 5777 5776 5776 5775 5773 5774 5777 5777 5779 5782 5783 5784 5785 5786 5786 5786 5786 5786 5786 5787 5787 5786 5786 5787 5787 5787 5788 5788 5788 5788 5788 5787 5788 5788 5789 5789 5789 5790 5790 5791 5790 5791 5792 5793 5792 5793 5793 5793 5793 5794 5794 5795 5796 5797 5796 5796 5796 5796 5795 5795 5794
5780 5780 5779 5778 5777 5775 5773 5774 5776 5778 5780 5782 5783 5784 5785 5785 5785 5786 5786 5786 5786 5786 5786 5786 5785 5785 5785 5786 5786 5786 5786 5786 5787 5787 5787 5788 5789 5789 5789 5789 5789 5789 5789 5790 5790 5790 5791 5791 5791 5791 5792 5792 5793 5794 5795 5795 5795 5795 5795 5795 5794 5794
5778 5777 5777 5777 5776 5775 5774 5775 5777 5779 5780 5782 5783 5784 5784 5784 5784 5785 5785 5785 5785 5785 5785 5784 5784 5783 5783 5784 5784 5785 5786 5786 5786 5787 5787 5787 5788 5789 5788 5788 5788 5788 5788 5788 5788 5789 5790 5789 5789 5790 5791 5792 5793 5793 5794 5794 5793 5793 5793 5793 5793 5792
5775 5775 5776 5776 5775 5776 5777 5778 5779 5780 5781 5782 5783 5783 5784 5784 5784 5784 5784 5784 5784 5784 5783 5783 5782 5782 5782 5783 5783 5784 5785 5786 5786 5786 5786 5786 5787 5787 5788 5787 5787 5786 5786 5787 5787 5787 5787 5787 5788 5789 5790 5791 5792 5792 5792 5792 5792 5792 5792 5791 5791 5791
5774 5775 5776 5777 5777 5778 5779 5779 5780 5780 5781 5782 5782 5783 5783 5783 5783 5783 5783 5783 5783 5782 5782 5782 5782 5781 5781 5782 5783 5783 5784 5785 5785 5785 5785 5786 5786 5786 5786 5786 5786 5785 5785 5785 5785 5785 5785 5786 5787 5788 5789 5790 5790 5790 5790 5790 5790 5790 5790 5790 5790 5789
5772 5774 5775 5777 5778 5779 5779 5780 5780 5780 5781 5781 5782 5782 5782 5782 5781 5781 5782 5782 5782 5782 5782 5781 5781 5781 5781 5781 5782 5782 5783 5784 5784 5784 5783 5784 5784 5784 5784 5784 5784 5784 5784 5784 5783 5783 5784 5785 5786 5786 5787 5787 5788 5788 5789 5788 5788 5788 5788 5788 5788 5788
5771 5773 5774 5775 5777 5778 5779 5780 5780 5780 5781 5781 5781 5781 5780 5780 5780 5780 5781 5781 5781 5781 5781 5781 5780 5781 5781 5781 5781 5782 5782 5782 5783 5783 5783 5782 5782 5781 5781 5781 5782 5782 5782 5782 5782 5782 5783 5784 5784 5784 5784 5785 5786 5787 5787 5786 5786 5786 5786 5786 5786 5786
5770 5771 5772 5773 5773 5775 5777 5778 5779 5780 5780 5780 5779 5779 5779 5779 5779 5780 5780 5781 5781 5781 5780 5780 5780 5780 5780 5781 5781 5781 5781 5781 5782 5782 5782 5782 5781 5780 5780 5779 5779 5780 5780 5780 5781 5781 5781 5782 5782 5782 5782 5783 5784 5785 5784 5784 5784 5784 5784 5784 5784 5784
5769 5769 5769 5770 5770 5772 5774 5776 5777 5778 5778 5777 5777 5778 5778 5778 5778 5778 5779 5780 5780 5780 5779 5779 5779 5779 5780 5780 5780 5780 5781 5781 5780 5780 5781 5781 5780 5780 5779 5778 5778 5778 5778 5778 5779 5779 5779 5780 5780 5780 5780 5781 5782 5782 5782 5782 5782 5782 5782 5782 5782 5782
5767 5767 5767 5767 5768 5770 5772 5774 5775 5775 5775 5775 5775 5776 5776 5776 5776 5777 5777 5778 5779 5779 5778 5778 5778 5778 5779 5779 5779 5779 5779 5779 5779 5779 5779 5779 5779 5778 5778 5777 5777 5776 5776 5776 5777 5777 5777 5777 5778 5778 5778 5779 5779 5780 5780 5780 5780 5780 5780 5780 5780 5780
5766 5766 5766 5766 5767 5768 5770 5771 5772 5772 5773 5773 5773 5773 5774 5775 5775 5775 5776 5777 5777 5777 5777 5777 5777 5777 5777 5778 5778 5778 5778 5778 5777 5777 5777 5777 5777 5777 5776 5776 5776 5776 5775 5775 5775 5775 5776 5776 5776 5776 5776 5777 5778 5778 5778 5778 5778 5778 5778 5778 5778 5778
5764 5765 5765 5764 5765 5766 5767 5768 5769 5770 5771 5771 5771 5771 5772 5773 5773 5774 5775 5776 5776 5776 5776 5776 5776 5776 5776 5776 5777 5776 5776 5776 5776 5775 5775 5775 5775 5775 5775 5775 5775 5775 5774 5774 5774 5774 5774 5775 5775 5775 5775 5775 5776 5776 5777 5777 5777 5777 5777 5777 5777 5777
5762 5763 5763 5763 5764 5765 5765 5766 5766 5768 5769 5770 5770 5771 5771 5771 5772 5773 5774 5774 5775 5775 5775 5775 5775 5775 5775 5775 5775 5775 5774 5774 5774 5774 5773 5773 5773 5773 5773 5773 5773 5773 5773 5772 5772 5773 5773 5773 5773 5773 5773 5774 5774 5774 5775 5775 5775 5776 5776 5776 5776 5776
5760 5761 5761 5762 5763 5763 5764 5764 5765 5767 5768 5769 5769 5770 5770 5770 5771 5772 5772 5773 5773 5773 5773 5773 5773 5773 5773 5773 5773 5773 5772 5772 5772 5772 5772 5772 5771 5771 5771 5771 5771 5771 5771 5771 5771 5771 5771 5772 5772 5772 5772 5772 5772 5773 5773 5773 5774 5774 5775 5775 5775 5775
5757 5758 5759 5760 5761 5761 5762 5763 5764 5765 5767 5768 5768 5769 5769 5769 5770 5770 5771 5771 5771 5771 5772 5772 5771 5771 5771 5771 5771 5771 5771 5770 5769 5770 5770 5770 5769 5769 5769 5768 5769 5769 5769 5769 5769 5770 5770 5770 5770 5770 5770 5771 5771 5771 5772 5772 5773 5773 5773 5773 5774 5773
Wind_Speed
24 22 21 20 17 15 14 13 13 13 14 14 15 17 19 22 24 25 25 26 24 19 17 17 16 15 15 14 15 16 17 18 17 17 17 16 17 17 17 16 16 17 18 18 18 18 17 17 19 21 22 23 24 24 23 22 21 18 15 16 17 16
21 20 19 17 15 13 13 12 12 13 12 12 14 16 18 18 18 16 16 18 18 18 18 16 14 14 14 14 15 16 16 17 16 16 16 17 17 18 17 17 17 16 17 17 18 18 18 18 19 21 22 24 25 25 25 24 23 18 15 17 18 17
19 19 17 15 15 14 13 12 11 9 9 11 13 15 16 17 15 12 13 17 18 19 18 15 15 14 14 15 16 17 17 17 17 17 18 18 18 18 18 18 17 17 16 17 17 18 18 19 20 21 22 24 26 27 27 26 24 18 15 19 20 19
18 18 17 16 15 13 11 10 8 7 8 9 10 12 13 14 14 13 15 16 17 18 18 16 14 13 14 16 17 18 18 18 18 18 17 17 17 18 18 17 17 16 16 16 16 17 18 19 19 20 22 23 25 27 28 27 24 18 18 21 21 19
19 19 19 16 13 11 11 8 8 8 8 8 9 12 12 12 12 14 15 15 16 16 14 13 13 13 15 17 18 17 17 17 16 16 15 15 15 16 17 16 15 15 15 15 14 14 16 18 19 20 21 22 25 27 27 27 23 19 21 23 21 20
19 19 17 12 11 13 12 9 10 10 8 10 12 12 12 11 13 16 16 14 15 14 12 13 13 14 17 18 17 16 14 13 14 14 14 14 14 14 15 14 14 12 13 14 13 12 13 15 17 19 20 21 23 25 25 24 22 21 23 22 22 22
16 15 13 12 14 15 12 11 11 9 9 11 12 11 11 12 14 15 15 14 15 15 16 16 16 16 16 15 15 13 12 12 11 12 12 13 13 13 12 12 12 11 10 12 12 11 11 13 15 16 18 19 20 23 24 23 22 23 23 22 23 23
16 14 15 18 17 13 11 13 11 9 10 11 12 12 12 13 13 13 13 13 14 15 16 16 16 14 13 12 11 10 10 10 10 11 12 11 11 12 11 11 12 11 9 8 11 11 10 11 13 15 16 17 19 21 22 22 22 22 22 23 23 23
18 17 17 18 16 14 16 15 12 11 11 12 12 13 13 13 13 14 14 13 13 14 14 13 11 11 11 11 9 8 8 9 10 12 12 9 8 9 10 10 10 9 7 5 9 11 10 10 12 14 13 15 18 19 21 20 20 21 21 22 22 23
19 18 16 16 16 16 16 13 12 13 13 13 13 12 12 12 12 13 13 12 12 12 12 9 7 8 9 9 8 7 6 8 10 11 9 8 7 8 7 6 6 5 4 3 6 9 8 8 10 11 12 13 15 17 19 18 18 20 20 20 21 23
19 18 16 16 15 13 12 12 12 13 13 12 12 11 11 12 12 10 10 12 12 10 8 5 5 7 7 7 7 6 5 6 9 9 8 7 7 7 5 4 1 1 1 3 6 8 8 7 9 10 11 12 13 15 17 17 17 19 20 19 20 21
16 16 16 15 14 12 11 12 13 13 13 11 11 10 10 11 10 8 8 10 9 7 4 3 5 6 6 7 8 7 7 7 8 9 8 7 7 5 3 1 3 3 4 5 5 7 7 6 8 9 11 11 12 14 15 16 17 19 20 19 20 21
15 15 16 16 13 11 11 11 12 12 10 10 10 9 8 7 6 6 7 7 6 5 3 2 4 5 6 8 8 8 8 8 8 9 7 6 5 3 2 2 4 2 6 5 5 6 6 4 3 5 9 10 10 13 14 14 16 17 19 20 20 20
18 18 19 18 14 10 10 11 12 12 11 11 9 7 7 4 5 6 5 5 5 4 3 3 4 5 6 7 8 8 8 8 7 7 7 5 3 1 1 1 1 3 6 5 4 5 5 3 2 3 5 6 7 9 10 12 14 14 15 16 17 18
19 19 20 20 16 12 11 12 11 11 11 10 7 6 5 4 5 6 3 4 4 4 3 4 5 6 6 7 7 8 8 7 6 6 5 4 2 2 1 1 1 2 4 5 3 2 4 3 3 3 5 7 6 6 7 8 11 12 12 12 13 15
17 17 18 19 17 14 12 12 10 9 9 7 6 6 4 3 5 5 5 5 5 5 4 4 5 6 7 8 8 9 9 8 6 5 4 3 3 2 2 1 0 2 4 7 3 2 3 3 4 4 5 6 6 5 5 6 7 9 9 9 11 13
16 17 17 16 15 13 11 9 9 10 9 7 8 6 4 5 6 6 6 6 6 6 5 6 6 6 8 8 8 9 9 9 7 5 4 4 3 3 2 1 1 4 6 6 3 3 3 2 4 6 6 6 6 6 6 5 6 7 7 8 8 10
15 16 17 16 14 12 11 9 10 11 10 7 5 6 8 8 8 8 8 8 8 8 8 8 8 7 9 8 8 8 8 8 8 6 5 4 4 4 3 2 3 4 6 5 4 3 3 2 4 7 6 5 6 7 7 6 6 7 7 8 6 6
15 16 18 18 14 13 12 10 8 7 5 5 5 7 9 10 11 11 10 10 10 11 11 11 10 9 9 8 8 8 7 8 8 6 5 5 5 6 5 3 3 5 6 7 5 4 5 4 4 5 6 6 6 6 6 6 6 6 6 7 6 6
16 18 19 18 14 12 12 10 6 4 5 7 8 10 11 11 11 12 12 12 12 13 13 13 12 10 9 10 9 8 8 8 8 6 5 6 7 7 5 4 5 6 7 8 7 6 6 6 5 4 5 6 6 6 6 7 7 6 6 6 7 7
16 17 19 18 14 12 11 10 7 7 9 9 9 9 10 11 11 12 12 12 13 13 13 14 14 13 12 10 9 8 8 9 8 6 5 5 7 7 5 4 6 7 7 8 8 7 7 9 7 5 5 5 5 6 7 7 8 8 8 8 8 9
17 15 13 13 13 12 10 9 9 9 8 7 7 8 9 10 11 12 13 13 13 14 14 13 13 14 13 11 9 8 8 8 8 7 5 5 6 6 5 5 6 8 9 8 8 7 9 9 8 7 6 6 6 7 8 8 8 8 8 9 9 10
17 14 11 8 7 10 11 11 12 10 7 9 10 10 11 12 13 13 14 14 14 14 14 14 13 13 13 10 9 8 8 9 9 8 7 6 7 6 5 6 7 8 9 9 9 8 9 9 9 9 9 9 9 9 9 9 9 8 8 9 10 12
17 16 18 18 17 18 19 18 15 11 9 12 14 15 15 14 14 15 15 14 14 13 13 13 12 13 12 11 10 9 9 10 9 9 8 8 7 6 6 7 8 9 10 11 11 9 9 10 10 10 10 10 11 10 10 10 11 11 10 11 12 14
22 23 25 27 26 25 26 22 14 12 13 15 17 18 17 17 17 17 15 15 14 13 11 11 11 12 13 12 11 10 10 10 10 10 9 8 7 6 7 8 10 12 12 12 11 11 11 11 11 11 10 11 12 12 11 11 12 13 13 13 13 14
26 28 28 30 30 26 25 23 17 16 17 17 19 19 19 18 18 17 16 15 14 13 11 10 11 11 12 13 13 13 11 11 11 11 10 9 7 7 7 9 11 13 12 12 12 11 11 12 12 11 11 12 12 12 12 12 13 14 14 14 14 14
26 28 27 28 29 26 22 22 23 21 19 18 19 18 18 18 17 17 16 15 14 13 12 11 11 11 11 12 12 13 12 12 12 12 11 10 9 9 8 9 11 12 12 12 12 12 13 13 12 12 12 12 12 12 12 12 13 13 14 14 13 13
19 23 24 23 25 25 23 23 24 22 20 21 21 19 18 17 17 17 16 15 14 14 13 12 11 11 11 11 11 12 12 11 11 12 11 11 11 11 11 11 11 11 12 13 13 13 13 12 12 13 12 11 12 12 12 13 13 14 14 13 12 13
11 16 20 21 23 25 24 22 19 18 20 23 22 19 18 17 17 18 16 15 14 14 14 13 13 12 12 12 12 11 11 11 11 11 11 11 11 12 12 12 12 12 12 13 13 13 13 12 12 13 13 13 13 12 13 13 14 14 13 12 12 14
10 13 19 23 25 25 23 20 17 20 23 23 22 19 18 18 18 18 16 15 14 13 13 13 14 14 15 15 15 15 14 13 12 12 12 12 12 12 12 12 13 13 13 13 12 12 13 11 11 13 13 13 13 12 13 14 14 13 12 12 14 15
11 13 15 19 23 23 23 24 23 26 24 21 20 18 18 18 18 17 16 15 15 13 12 12 14 15 17 18 18 19 18 17 16 15 14 14 14 13 12 12 13 13 14 13 13 13 13 12 11 12 12 13 13 12 13 13 12 12 12 13 13 13
9 10 11 11 15 18 21 25 26 24 21 19 18 17 18 18 17 17 16 15 14 13 12 11 12 14 16 18 20 21 22 22 20 19 18 17 17 16 15 13 13 13 14 14 13 13 13 12 11 11 11 12 12 12 12 12 11 11 12 12 12 12
9 9 8 7 10 15 19 22 22 19 17 17 16 16 17 17 16 16 15 14 14 12 12 11 12 13 15 17 19 20 21 22 22 21 20 19 18 18 17 15 13 13 13 13 13 13 12 11 11 12 11 11 11 11 11 11 11 11 11 11 11 11
11 10 8 7 8 11 13 15 15 15 15 16 16 16 16 16 16 16 16 14 13 12 11 12 12 12 13 14 16 18 20 20 20 19 18 17 16 16 16 16 15 14 13 13 13 13 12 11 11 11 11 11 11 10 10 10 11 11 11 11 11 11
11 11 10 9 8 8 9 10 10 12 13 16 16 16 16 17 18 17 16 15 12 11 11 11 11 11 11 13 15 17 19 20 19 17 16 15 14 15 16 16 16 14 13 13 13 12 12 12 11 11 11 10 10 10 9 9 10 10 10 10 10 10
12 13 12 10 8 8 7 8 10 10 12 15 17 17 17 19 19 18 17 14 12 11 10 10 10 10 12 14 16 17 19 21 21 19 17 16 16 16 16 16 16 15 14 14 13 12 12 12 11 11 10 10 9 9 8 8 8 9 9 9 10 10
12 12 13 12 10 9 8 10 11 13 15 17 19 19 20 21 21 19 17 14 11 10 10 9 10 11 12 14 16 17 18 19 20 22 20 19 18 17 17 16 15 15 15 15 14 13 13 12 12 11 10 10 9 9 8 8 8 8 9 9 9 10
Wind_Direction
290 291 293 295 292 286 282 280 278 275 275 273 270 270 270 268 265 264 264 258 248 253 270 274 271 268 267 276 286 287 288 289 288 289 289 286 280 276 272 269 265 260 257 255 256 257 257 256 252 250 249 248 250 251 250 250 251 248 243 246 249 255
289 291 295 296 291 286 284 284 279 274 272 269 268 267 267 270 268 264 258 251 255 265 269 267 267 268 275 287 288 288 290 288 287 288 287 283 278 275 271 268 265 262 260 258 256 256 255 254 252 250 249 248 250 252 252 251 251 248 242 245 248 253
289 293 294 293 286 280 283 287 279 273 274 271 267 264 267 273 268 256 250 252 259 263 262 262 262 273 290 294 293 294 293 292 292 288 282 280 276 273 270 268 266 265 262 260 258 257 256 254 252 250 248 249 251 253 254 253 254 253 246 245 246 251
290 291 291 286 274 269 280 283 269 270 278 269 259 260 269 275 269 258 252 253 260 264 264 265 269 287 297 295 295 295 293 294 296 291 282 276 274 274 271 268 266 265 263 259 258 257 257 256 253 250 249 249 251 254 256 256 256 256 249 247 247 252
290 288 287 279 261 268 285 270 265 284 277 255 250 261 271 274 268 255 248 253 263 265 265 272 282 293 297 296 298 298 295 294 294 290 285 279 277 278 276 270 265 265 265 262 258 256 257 257 256 253 251 250 252 255 258 259 259 256 251 250 251 253
288 287 284 269 259 282 286 267 277 287 264 254 258 262 269 267 263 257 256 263 268 263 264 278 289 296 298 297 300 301 298 297 296 291 287 283 281 282 280 273 266 263 266 268 262 256 256 257 257 255 254 254 255 256 260 263 262 255 251 252 254 254
286 283 278 270 278 285 277 270 279 275 256 253 256 262 266 264 264 265 268 272 273 271 274 282 289 296 300 299 304 307 304 303 304 301 294 289 287 286 281 272 268 260 256 264 266 265 264 261 260 258 255 254 255 256 259 263 261 255 251 251 252 254
287 279 276 278 278 269 266 276 273 259 252 250 257 266 263 263 268 271 275 279 281 284 287 287 287 295 305 305 310 318 318 316 314 311 303 295 295 290 273 262 270 261 242 256 272 276 274 268 264 260 257 256 256 256 257 258 257 255 252 249 249 252
286 280 277 274 266 260 269 272 261 253 253 259 267 265 260 268 276 279 286 292 296 297 293 290 295 305 310 308 315 326 328 325 321 317 310 303 305 298 271 259 273 260 239 275 289 281 276 269 265 263 262 260 258 258 259 258 255 255 254 251 250 251
282 279 273 266 261 262 265 260 256 259 259 260 260 258 266 277 282 286 295 301 301 295 288 297 316 309 303 306 313 323 330 331 324 322 325 324 321 315 289 272 283 259 246 301 304 295 294 278 268 265 259 258 260 261 263 260 254 255 256 254 253 251
277 272 263 257 255 253 255 258 258 257 254 254 259 267 277 281 287 297 299 294 287 281 287 315 318 295 296 308 313 321 327 329 330 333 340 342 339 333 319 291 259 112 330 321 313 313 321 295 269 261 256 259 265 265 268 267 260 260 261 258 254 253
269 261 256 250 245 244 251 259 257 253 252 259 273 279 279 283 286 283 274 274 274 273 289 323 299 295 311 317 320 325 325 329 336 344 352 351 350 351 1 16 150 92 348 332 337 325 329 314 274 260 262 269 270 269 275 276 271 268 264 260 257 258
259 255 262 258 249 247 252 256 256 254 255 270 284 278 276 285 275 253 252 263 276 285 307 326 304 307 314 310 313 319 323 333 338 347 0 9 14 18 24 84 135 33 327 328 357 332 329 337 299 279 274 275 276 276 279 276 272 269 264 261 262 262
253 252 260 263 261 257 256 255 253 257 265 278 288 274 263 270 262 252 253 264 276 297 318 317 303 304 304 303 308 312 314 326 337 344 358 15 29 0 341 84 183 301 313 322 351 343 330 330 343 334 311 309 304 293 288 280 273 268 263 264 266 265
256 252 251 257 261 258 255 254 255 265 269 268 268 249 239 255 269 266 275 284 284 298 304 297 304 311 308 308 312 310 309 317 329 338 350 358 346 319 302 319 271 263 316 334 346 348 306 299 0 11 346 342 337 329 317 296 282 273 268 270 275 271
261 256 252 251 252 251 250 251 251 255 254 249 243 231 229 274 295 305 313 304 292 295 298 296 309 316 311 315 319 312 310 309 308 322 333 324 329 341 313 321 212 234 316 340 349 349 306 305 12 18 2 353 350 355 343 319 306 294 283 281 285 278
260 255 253 246 240 243 244 244 240 236 235 231 233 247 289 317 320 313 298 287 283 292 305 307 312 318 314 317 317 306 306 305 297 305 314 311 337 351 322 289 264 264 299 325 319 323 323 323 9 7 3 357 352 353 346 338 330 320 310 300 298 288
262 250 246 234 223 232 240 240 232 223 222 224 245 289 311 309 300 290 286 287 286 293 301 307 313 316 317 318 310 299 302 305 294 292 300 312 337 341 315 267 283 282 280 294 285 280 300 306 353 354 347 348 354 352 347 346 341 337 330 319 322 301
252 235 231 226 222 234 239 232 229 227 236 259 278 287 285 285 291 295 300 301 298 298 296 298 303 307 312 310 304 299 300 298 293 297 310 323 335 331 318 285 290 296 276 281 284 273 282 293 331 346 336 335 346 350 345 343 339 335 331 327 331 311
236 221 217 220 225 229 222 212 224 257 258 257 259 263 275 290 302 305 304 303 300 297 294 293 296 299 303 301 302 303 298 292 295 311 328 328 331 331 326 300 290 292 274 277 286 283 284 289 300 319 326 330 334 341 340 336 330 321 322 324 320 311
225 216 215 220 221 208 206 211 213 224 232 242 259 271 288 299 302 301 297 296 294 290 287 288 292 296 297 299 305 305 300 299 301 313 326 321 324 327 319 292 287 283 265 270 283 283 282 283 283 287 309 319 321 329 334 331 326 318 315 313 309 307
216 213 216 216 214 212 221 233 223 220 238 265 285 287 292 295 295 292 289 288 286 284 282 281 286 288 289 295 305 308 308 310 311 315 323 315 313 313 299 289 291 281 265 269 281 276 278 286 288 292 306 306 303 311 317 318 317 312 306 303 301 298
225 227 230 219 223 226 220 226 236 245 271 291 295 294 293 294 292 288 284 282 280 280 279 279 280 281 284 290 302 315 317 317 317 318 327 322 310 307 302 306 303 286 274 284 291 278 278 292 294 298 305 301 297 302 304 306 306 302 301 302 298 294
239 239 237 238 250 252 236 234 246 261 280 290 293 296 297 296 293 288 283 280 278 275 275 277 279 282 287 293 302 316 321 320 317 316 325 325 316 316 315 312 304 293 289 299 301 285 283 296 296 297 300 295 296 298 298 299 297 294 295 296 294 292
235 233 230 232 242 254 252 247 254 272 284 294 299 298 298 294 290 288 284 281 278 274 273 274 278 284 289 294 299 306 312 313 310 308 312 314 312 309 305 301 299 297 298 304 302 283 284 301 304 302 300 296 298 296 295 296 294 293 292 290 290 289
235 230 228 229 235 246 253 252 259 279 289 295 298 295 293 290 286 284 281 277 275 273 274 276 280 285 288 291 293 295 299 301 302 300 299 302 303 296 292 292 294 299 300 304 303 292 296 310 310 305 300 298 297 294 293 292 290 290 288 289 292 286
243 236 235 238 238 237 246 255 259 269 278 281 285 285 284 283 281 277 273 269 269 269 272 276 282 288 292 293 294 294 295 297 299 298 295 294 296 295 293 291 292 298 300 301 304 302 306 313 312 305 300 299 297 294 294 293 290 289 288 292 292 282
245 241 244 250 247 243 253 263 257 258 269 273 273 274 274 274 271 268 265 264 264 265 268 272 278 284 290 294 298 299 298 297 297 297 298 296 296 297 297 296 296 299 299 298 297 297 300 306 307 306 304 301 297 297 300 297 292 292 292 293 288 283
244 246 249 252 250 253 263 263 252 260 276 275 269 267 266 264 263 262 262 261 261 263 265 267 270 275 281 285 291 298 299 299 297 295 295 295 295 295 296 298 298 296 297 296 293 292 292 294 295 297 298 298 298 302 302 297 295 297 298 296 293 295
261 262 259 255 251 252 252 245 252 279 284 273 264 263 261 260 260 261 261 260 259 260 261 265 269 273 278 282 284 289 292 294 294 293 292 292 294 294 296 300 299 298 297 296 294 291 289 289 289 290 294 298 301 304 301 300 304 307 306 302 302 304
265 268 267 263 257 249 239 242 267 286 281 266 261 263 262 258 257 258 259 259 257 259 261 265 271 275 280 283 285 288 289 289 288 286 285 288 291 294 298 300 300 301 299 297 295 292 290 291 290 291 297 299 300 302 301 304 309 310 308 306 307 308
274 271 264 260 258 250 244 254 272 277 266 257 258 260 260 257 256 256 257 259 260 261 263 265 270 274 279 283 285 287 288 288 286 282 279 280 286 290 294 297 300 302 301 298 295 291 291 292 291 293 297 299 301 302 301 304 308 309 308 308 308 307
289 284 272 262 261 259 259 265 268 259 250 248 245 249 254 255 256 258 260 262 266 268 270 271 273 276 280 284 287 287 287 285 283 279 276 276 281 285 289 292 297 301 299 297 294 291 290 291 291 292 295 298 303 305 305 305 307 307 306 305 306 304
286 285 280 280 280 273 268 266 256 241 239 240 237 240 246 249 253 257 260 264 269 275 278 280 280 282 285 288 290 290 288 284 279 276 274 274 277 281 286 289 292 295 295 295 294 291 290 289 288 289 292 296 299 303 306 307 306 305 303 303 303 301
277 279 280 285 292 288 272 257 236 222 232 240 241 242 244 248 253 256 260 263 269 276 282 286 290 294 296 296 297 297 291 283 275 269 266 268 273 278 283 287 287 289 292 293 292 290 289 288 287 288 289 291 295 299 303 306 307 305 303 301 299 297
272 272 276 283 293 295 271 240 219 219 237 245 245 247 249 253 256 257 260 263 268 276 282 289 297 304 306 303 302 303 299 285 269 261 259 262 268 274 278 282 283 284 286 289 289 287 286 285 285 286 287 289 293 297 300 303 303 300 299 298 295 293
272 271 275 283 287 283 262 241 240 249 255 249 244 245 249 253 255 257 259 259 263 272 281 290 299 306 309 308 304 304 305 292 268 257 256 260 265 269 271 273 277 278 280 282 283 281 280 280 281 282 284 286 289 291 294 295 295 294 294 294 292 292